Dean International
Flight School

Career Spotlight

Mika

Mika

Congratulations to Mika from Khazakstan. She recently sent us this photo of her flying an Airbus airliner.

More...
Mika's Success Story
close

Congratulations to Mika from Khazakstan. She recently sent us this photo of her flying an Airbus airliner.

Mario

Mario

My dreams could not have been realized if I wouldn't have been part of the Dean International family.

More...
Mario's Success Story
close

"My dreams could not have been realized if I wouldn't have been part of the Dean International family. Thank you Robert, thanks to all my co-workers, and thanks to all of my students!"

Fernando

Fernando

I am now working as a First Officer at TACA and am enjoying every moment of it.

More...
Fernando's Success Story
close

"Will never forget my time of flight training at Dean International. I am now working as a First Officer at TACA and am enjoying every moment of it."

Alvaro

Alvaro

Because of the flight time I was able to built while instructing, I got the experience needed to apply to an airline in Colombia.

More...
Alvaro's Success Story
close

Dean alumnus Alvaro Londoño currently flies with Tampa Cargo. He says of his experience at Dean: "I want to take this opportunity to thank you for giving me the chance to build my experience and expand my knowledge in Dean International. Because of the flight time I was able to built flight instructing, I got the experience needed to apply to an airline in Colombia."

Ralph

Ralph

Every Aruban student of Dean International has made it into Tiara Air Aruba, that is very nice.

More...
Ralph's Success Story
close

"Next to me is my Co-Pilot, Elison. This picture was taken on our first flight together, which was almost exactly 5 years after I finished at Dean International. [...] Every Aruban student of Dean International has made it into Tiara Air Aruba. [...] The future looks bright here in Aruba."

Rohaan

Rohaan

The [..] staff will all work diligently to help you finish your certificates as safely and efficiently as possible.

More...
Rohaan's Success Story
close

After receiving very hard times from other flight schools [...], I came to Dean International where Robert Dean personally sat down with me and gave me a financial and chronological look into how much remained to finish my private pilot certificate. Through his hard efforts as an instructor and mentor, I was able to finish my private pilot certificate within one week.

Welcome to Dean International

In over two decades, Dean International has educated over 7,000 pilots from all over the world, including over 1,000 students from India alone. By offering a great training experience, a friendly service staff, an ample variety of aircraft, and by improving constantly, we have become one of the largest, most prestigious FAA 141-approved flight schools in North America. Located in Miami, Florida, USA, our flight school offers an ideal location for year-round, "learn to fly" weather, flight training. Dean International is not only well-equipped to provide services to professional trainees but also caters to General Aviation renters. Visit or contact our headquarters at Kendall-Tamiami Executive Airport located in Miami, FL today to learn more about us, or simply read more about our programs if you are an international student interested in joining our school.

Local Airport Information
TAF FOR KTMB (Issued: Sun, February 7th 2016 6:48 PM UTC)
TAF KTMB 071744Z 0718/0818 32018G28KT P6SM FEW020 SCT250
      FM072300 30011G18KT P6SM FEW250
      FM080200 30005KT P6SM SKC
      FM081400 28011KT P6SM FEW025 SCT250
     
METAR FOR KTMB (Issued: Sun, February 7th 2016 10:53 PM UTC):
KTMB 072253Z 27012KT 10SM CLR 14/07 A3003 RMK AO2 SLP168 T01440067

This weather information is provided by the National Weather Service.
It is automatically refreshed every three minutes.
TAF FOR KHST (Issued: Sun, February 7th 2016 10:13 PM UTC)
TAF
      AMD KHST 072200Z 0722/0822 28012G20KT 9999 SKC QNH3000INS
      BECMG 0723/0724 29012KT 9999 SKC QNH2998INS
      BECMG 0815/0816 30009KT 9999 FEW200 QNH3010INS TX17/0722Z TN08/0812Z
      AMD 072200
     
METAR FOR KHST (Issued: Sun, February 7th 2016 10:58 PM UTC):
KHST 072258Z AUTO 27010KT 10SM CLR 15/05 A3003 RMK AO2 SLP172 T01530054

This weather information is provided by the National Weather Service.
It is automatically refreshed every three minutes.
TAF FOR KOPF (Issued: Sun, February 7th 2016 6:48 PM UTC)
TAF KOPF 071744Z 0718/0818 30018G28KT P6SM FEW020 SCT250
      FM072300 30012G23KT P6SM FEW250
      FM080200 30005KT P6SM SKC
      FM081400 28012KT P6SM FEW025 SCT250
     
METAR FOR KOPF (Issued: Sun, February 7th 2016 10:53 PM UTC):
KOPF 072253Z 28013KT 10SM CLR 16/02 A3002 RMK AO2 SLP166 T01610017

This weather information is provided by the National Weather Service.
It is automatically refreshed every three minutes.
TAF FOR KMIA (Issued: Sun, February 7th 2016 10:48 PM UTC)
TAF
      AMD KMIA 072142Z 0722/0818 28010G19KT P6SM SKC
      FM072300 30012G23KT P6SM FEW250
      FM080200 30007KT P6SM SKC
      FM081400 28012KT P6SM FEW025 SCT250
     
METAR FOR KMIA (Issued: Sun, February 7th 2016 10:53 PM UTC):
KMIA 072253Z 29006KT 10SM FEW065 FEW250 17/03 A3002 RMK AO2 SLP165 T01670033

This weather information is provided by the National Weather Service.
It is automatically refreshed every three minutes.
Design by Ariel Llizo
© Dean International Inc. 2012